Location: Cheyres
(46.8153°N, 6.7877°E)
Time: 00:59:18
(UTC+00:00)

BREEZE-M DEB (TANK) - Pass Details

Date: 11 May 2021
Orbit: 293 x 15375 km, 49.4° (Epoch: 23 June)

Event Time Altitude Azimuth Distance (km) Brightness Sun altitude
Rises 20:12:59 0° 297° (WNW) 7,191 10.1 -11.5°
Reaches altitude 10° 20:19:51 10° 292° (WNW) 4,317 8.5 -12.4°
Maximum altitude 20:27:46 39° 228° (SW) 1,083 4.3 -13.3°
Enters shadow 20:29:50 19° 167° (SSE) 1,271 4.2 -13.6°
